Dewpoint
64 63 65 65 67 65 65 62 65 62 65 63 62 59 60 59 56 59 60 59 60 60 59 59 59 58 58 59 58 57 56 57 57 56 57 57 58 57 55 55 55 55
64 64 65 65 66 66 65 63 61 63 61 60 62 62 60 58 58 59 60 58 59 58 59 60 59 59 58 59 58 58 57 56 55 55 55 55 56 55 56 57 56 56
65 64 64 63 64 63 63 64 65 64 66 62 64 61 59 61 57 59 61 56 61 59 59 59 60 59 58 58 58 58 58 57 56 56 56 54 56 56 56 57 56 56
65 64 62 60 62 62 63 64 64 64 63 64 61 59 59 57 59 59 56 56 58 59 59 59 59 59 59 57 58 58 58 58 58 58 56 56 56 55 55 56 57 55
63 64 64 63 63 63 63 63 62 63 62 61 61 60 60 61 59 53 54 58 58 58 57 57 58 58 58 58 57 58 58 58 58 58 57 55 56 57 55 55 55 54
64 59 60 59 63 64 64 62 62 62 60 61 61 62 59 59 55 54 57 56 55 55 56 56 54 55 56 58 58 58 57 58 58 57 54 54 56 56 56 56 55 53
63 63 63 63 62 63 63 63 64 63 62 62 60 61 60 56 55 53 56 57 55 56 53 50 55 57 57 55 57 57 57 57 57 56 54 54 54 53 56 56 56 53
63 63 63 62 63 63 63 63 63 64 63 61 60 60 59 56 53 55 57 57 53 55 53 52 53 50 56 56 55 55 54 55 55 56 56 55 54 52 53 55 57 55
63 63 63 64 64 63 63 63 64 64 63 62 61 60 59 58 56 58 54 50 53 56 55 49 50 54 55 55 55 53 51 53 55 55 55 55 53 51 50 53 52 54
61 62 62 63 64 64 63 63 64 64 63 62 59 60 57 59 58 52 56 57 55 54 49 49 54 55 54 56 54 53 51 49 49 53 54 53 53 50 51 52 51 52
63 62 62 62 64 65 65 63 64 64 66 60 60 59 56 58 58 56 59 51 50 51 47 47 50 52 53 54 54 55 52 51 50 49 53 53 53 53 52 52 52 51
62 63 62 62 62 63 65 66 65 63 62 62 57 56 57 58 60 59 53 51 47 45 52 45 48 52 49 51 53 54 55 53 52 51 51 51 51 51 52 53 53 51
60 61 60 64 64 65 65 64 63 63 60 58 58 57 58 59 57 54 54 53 48 52 50 54 53 53 52 55 53 54 50 50 51 49 49 50 52 51 52 53 52 51
62 59 59 61 63 63 65 63 60 60 60 61 59 58 58 59 56 54 55 55 57 56 55 54 54 53 51 51 52 53 52 50 50 52 50 50 51 51 53 53 53 52
61 62 60 64 62 62 62 61 61 62 60 59 61 61 62 60 56 54 52 51 51 51 50 54 56 56 56 58 53 54 53 51 50 51 51 49 49 50 51 51 51 52
56 60 58 62 60 60 59 60 60 62 60 62 61 59 59 57 55 55 53 53 51 50 55 58 57 57 59 53 53 55 53 52 51 52 52 49 49 49 50 50 50 51
57 56 57 56 57 59 61 57 55 57 58 57 58 60 59 60 59 55 55 55 53 51 52 58 58 58 50 42 43 46 53 53 51 52 51 49 48 48 48 49 50 49
55 54 52 53 56 54 54 53 56 57 56 56 57 57 57 58 58 56 55 57 57 54 53 55 56 56 41 41 42 42 48 53 52 51 51 48 47 46 46 46 48 51
52 52 52 59 54 52 54 57 55 55 55 57 57 58 58 57 56 56 56 58 57 54 54 56 54 45 40 41 41 41 42 51 47 50 49 48 47 46 45 45 47 49
50 50 51 52 55 59 58 55 57 56 59 59 59 60 60 58 58 58 57 56 55 54 54 54 53 45 40 41 41 40 40 44 47 50 49 46 45 45 46 47 48 50
48 49 54 52 53 54 57 54 54 57 57 58 59 58 57 56 57 56 56 56 56 55 55 56 55 43 40 40 40 40 40 42 50 50 49 48 48 47 47 47 48 49
50 50 52 51 51 51 52 52 55 56 55 57 56 57 57 57 57 57 57 57 56 55 54 55 62 41 40 40 40 40 40 49 50 50 49 47 47 48 47 48 49 51
49 49 52 53 53 54 54 56 56 56 57 56 56 56 55 55 54 55 56 55 55 56 57 56 62 43 40 40 40 40 42 49 50 48 47 47 47 48 49 48 49 48
50 48 49 51 51 50 51 54 57 58 57 59 56 54 54 54 55 55 56 56 56 55 54 53 52 52 40 40 40 40 47 49 49 48 46 46 47 48 48 47 47 52
58 58 58 57 55 54 57 56 58 58 59 60 59 57 56 57 54 53 53 54 54 54 57 54 53 55 41 40 40 40 45 50 49 45 44 44 45 46 49 49 48 51
52 51 52 53 52 55 58 58 59 58 60 59 59 55 52 53 53 51 51 52 53 54 54 54 54 55 47 40 41 41 43 49 49 46 44 44 45 44 45 46 47 48